User: anonymous   Login
Location: Waning Moon II Observatory
(30.3730°N, 89.7620°W)
Time: 03:06:38
(UTC-05:00)
Language:

Cosmos 1825 Rocket - Orbit

View from above orbital plane
View from above orbital plane
View from above satellite
View from above satellite

Ground track
Ground track

The orbit data is extracted from the following two-line orbital elements,

1 17567U 87024B   15182.43639564  .00000131  00000-0  12999-4 0  9993
2 17567 082.5293 149.7677 0019057 185.6266 174.4738 14.83451720530191
Epoch (UTC): 01 July 2015 10:28:24
Eccentricity: 0.0019057
inclination: 82.5293°
perigee height: 605 km
apogee height: 632 km
right ascension of ascending node: 149.7677°
argument of perigee: 185.6266°
revolutions per day: 14.83451720
mean anomaly at epoch: 174.4738°
orbit number at epoch: 53019

The dashed part of the orbit path shows where the satellite is in the earth's shadow,  

DLR